| time (UTC) | temp F | wind direction | speed MPH | gust MPH | rain 1hr in | rain 24hr in | rain mn in | humidity % | barometer mb |
| 20260906145857 | 70 | 313 | 4.0 | 6.0 | 0.00 | 0.00 | 0.00 | ||
| 20260906145454 | 70 | 343 | 4.0 | 7.0 | 0.00 | 0.00 | 0.00 | ||
| 20260906145053 | 70 | 358 | 3.0 | 5.0 | 0.00 | 0.00 | 0.00 | ||
| 20260906144651 | 70 | 301 | 3.0 | 9.0 | 0.00 | 0.00 | 0.00 | ||
| 20260906144250 | 70 | 320 | 4.0 | 7.0 | 0.00 | 0.00 | 0.00 | ||
| 20260906143848 | 69 | 353 | 4.0 | 9.0 | 0.00 | 0.00 | 0.00 | ||
| 20260906143446 | 70 | 337 | 4.0 | 8.0 | 0.00 | 0.00 | 0.00 | ||
| 20260906143038 | 71 | 308 | 4.0 | 10.0 | 0.00 | 0.00 | 0.00 | ||
| 20260906142636 | 69 | 322 | 5.0 | 10.0 | 0.00 | 0.00 | 0.00 | ||
| 20260906142234 | 69 | 304 | 7.0 | 14.0 | 0.00 | 0.00 | 0.00 | ||
| 20260906141833 | 70 | 302 | 6.0 | 11.0 | 0.00 | 0.00 | 0.00 | ||
| 20260906141431 | 69 | 332 | 4.0 | 7.0 | 0.00 | 0.00 | 0.00 | ||
| 20260906141030 | 69 | 300 | 5.0 | 9.0 | 0.00 | 0.00 | 0.00 | ||
| 20260906140628 | 69 | 318 | 6.0 | 12.0 | 0.00 | 0.00 | 0.00 | ||
| 20260906140225 | 69 | 313 | 7.0 | 12.0 | 0.00 | 0.00 | 0.00 | ||
| 20260906135824 | 71 | 297 | 3.0 | 6.0 | 0.00 | 0.00 | 0.00 | ||
| 20260906135422 | 70 | 302 | 3.0 | 6.0 | 0.00 | 0.00 | 0.00 | ||
| 20260906135014 | 70 | 299 | 5.0 | 9.0 | 0.00 | 0.00 | 0.00 | ||
| 20260906134611 | 70 | 311 | 4.0 | 8.0 | 0.00 | 0.00 | 0.00 | ||
| 20260906134210 | 70 | 251 | 3.0 | 5.0 | 0.00 | 0.00 | 0.00 | ||
| 20260906133809 | 70 | 293 | 3.0 | 5.0 | 0.00 | 0.00 | 0.00 | ||
| 20260906133407 | 70 | 302 | 8.0 | 13.0 | 0.00 | 0.00 | 0.00 | ||
| 20260906133005 | 70 | 306 | 5.0 | 10.0 | 0.00 | 0.00 | 0.00 | ||
| 20260906132603 | 68 | 310 | 7.0 | 10.0 | 0.00 | 0.00 | 0.00 | ||
| 20260906132202 | 69 | 307 | 4.0 | 7.0 | 0.00 | 0.00 | 0.00 | ||
| 20260906131801 | 68 | 314 | 4.0 | 8.0 | 0.00 | 0.00 | 0.00 | ||
| 20260906131358 | 69 | 331 | 3.0 | 8.0 | 0.00 | 0.00 | 0.00 | ||
| 20260906130950 | 69 | 310 | 3.0 | 6.0 | 0.00 | 0.00 | 0.00 | ||
| 20260906130548 | 70 | 315 | 5.0 | 9.0 | 0.00 | 0.00 | 0.00 | ||
| 20260906130147 | 69 | 319 | 6.0 | 10.0 | 0.00 | 0.00 | 0.00 | ||
| 20260906125746 | 70 | 325 | 6.0 | 10.0 | 0.00 | 0.00 | 0.00 | ||
| 20260906125343 | 69 | 320 | 6.0 | 10.0 | 0.00 | 0.00 | 0.00 | ||
| 20260906124942 | 68 | 315 | 6.0 | 12.0 | 0.00 | 0.00 | 0.00 | ||
| 20260906124541 | 69 | 302 | 7.0 | 10.0 | 0.00 | 0.00 | 0.00 | ||
| 20260906124140 | 68 | 287 | 6.0 | 9.0 | 0.00 | 0.00 | 0.00 | ||
| 20260906123737 | 69 | 311 | 5.0 | 9.0 | 0.00 | 0.00 | 0.00 | ||
| 20260906123336 | 70 | 330 | 5.0 | 9.0 | 0.00 | 0.00 | 0.00 | ||
| 20260906122928 | 71 | 336 | 5.0 | 11.0 | 0.00 | 0.00 | 0.00 | ||
| 20260906122526 | 70 | 314 | 6.0 | 11.0 | 0.00 | 0.00 | 0.00 | ||
| 20260906122124 | 70 | 301 | 7.0 | 16.0 | 0.00 | 0.00 | 0.00 | ||
| 20260906121723 | 70 | 287 | 8.0 | 12.0 | 0.00 | 0.00 | 0.00 | ||
| 20260906121321 | 69 | 289 | 5.0 | 8.0 | 0.00 | 0.00 | 0.00 | ||
| 20260906120920 | 69 | 289 | 7.0 | 10.0 | 0.00 | 0.00 | 0.00 | ||
| 20260906120517 | 68 | 277 | 9.0 | 16.0 | 0.00 | 0.00 | 0.00 | ||
| 20260906120116 | 69 | 279 | 8.0 | 12.0 | 0.00 | 0.00 | 0.00 | ||
| 20260906115715 | 68 | 327 | 7.0 | 12.0 | 0.00 | 0.00 | 0.00 | ||
| 20260906115313 | 68 | 313 | 9.0 | 16.0 | 0.00 | 0.00 | 0.00 | ||
| 20260906114905 | 69 | 294 | 8.0 | 14.0 | 0.00 | 0.00 | 0.00 | ||
| 20260906114502 | 69 | 303 | 9.0 | 14.0 | 0.00 | 0.00 | 0.00 | ||
| 20260906114101 | 68 | 309 | 7.0 | 12.0 | 0.00 | 0.00 | 0.00 | ||
| 20260906113700 | 67 | 277 | 8.0 | 11.0 | 0.00 | 0.00 | 0.00 | ||
| 20260906113258 | 67 | 296 | 8.0 | 11.0 | 0.00 | 0.00 | 0.00 | ||
| 20260906112856 | 67 | 281 | 10.0 | 18.0 | 0.00 | 0.00 | 0.00 | ||
| 20260906112454 | 68 | 267 | 7.0 | 11.0 | 0.00 | 0.00 | 0.00 | ||
| 20260906112053 | 68 | 321 | 5.0 | 11.0 | 0.00 | 0.00 | 0.00 | ||
| 20260906111652 | 67 | 294 | 6.0 | 12.0 | 0.00 | 0.00 | 0.00 | ||
| 20260906111249 | 67 | 295 | 8.0 | 15.0 | 0.00 | 0.00 | 0.00 | ||
| 20260906110841 | 66 | 294 | 7.0 | 10.0 | 0.00 | 0.00 | 0.00 | ||
| 20260906110439 | 66 | 302 | 10.0 | 14.0 | 0.00 | 0.00 | 0.00 | ||
| 20260906110038 | 68 | 288 | 10.0 | 20.0 | 0.00 | 0.00 | 0.00 | ||
| 20260906105636 | 68 | 287 | 5.0 | 8.0 | 0.00 | 0.00 | 0.00 | ||
| 20260906104833 | 66 | 286 | 8.0 | 12.0 | 0.00 | 0.00 | 0.00 | ||
| 20260906104432 | 67 | 282 | 4.0 | 9.0 | 0.00 | 0.00 | 0.00 | ||
| 20260906104031 | 66 | 288 | 6.0 | 10.0 | 0.00 | 0.00 | 0.00 | ||
| 20260906103628 | 66 | 301 | 9.0 | 15.0 | 0.00 | 0.00 | 0.00 | ||
| 20260906103227 | 68 | 300 | 7.0 | 14.0 | 0.00 | 0.00 | 0.00 | ||
| 20260906102819 | 67 | 309 | 5.0 | 10.0 | 0.00 | 0.00 | 0.00 | ||
| 20260906102417 | 66 | 304 | 7.0 | 11.0 | 0.00 | 0.00 | 0.00 | ||
| 20260906102015 | 64 | 310 | 7.0 | 12.0 | 0.00 | 0.00 | 0.00 | ||
| 20260906101614 | 65 | 303 | 8.0 | 14.0 | 0.00 | 0.00 | 0.00 | ||
| 20260906101212 | 66 | 332 | 5.0 | 9.0 | 0.00 | 0.00 | 0.00 | ||
| 20260906100811 | 68 | 318 | 4.0 | 7.0 | 0.00 | 0.00 | 0.00 | ||
| 20260906100408 | 67 | 304 | 3.0 | 7.0 | 0.00 | 0.00 | 0.00 | ||
| 20260906100007 | 64 | 301 | 7.0 | 10.0 | 0.00 | 0.00 | 0.00 | ||
| 20260906095606 | 65 | 322 | 6.0 | 10.0 | 0.00 | 0.00 | 0.00 | ||
| 20260906095204 | 65 | 301 | 7.0 | 11.0 | 0.00 | 0.00 | 0.00 | ||
| 20260906094755 | 66 | 325 | 7.0 | 13.0 | 0.00 | 0.00 | 0.00 | ||
| 20260906094353 | 66 | 297 | 5.0 | 9.0 | 0.00 | 0.00 | 0.00 | ||
| 20260906093952 | 65 | 285 | 7.0 | 11.0 | 0.00 | 0.00 | 0.00 | ||
| 20260906093551 | 64 | 314 | 7.0 | 12.0 | 0.00 | 0.00 | 0.00 | ||
| 20260906093149 | 66 | 307 | 8.0 | 12.0 | 0.00 | 0.00 | 0.00 | ||
| 20260906092747 | 68 | 304 | 5.0 | 12.0 | 0.00 | 0.00 | 0.00 | ||
| 20260906092345 | 67 | 299 | 4.0 | 7.0 | 0.00 | 0.00 | 0.00 | ||
| 20260906091944 | 65 | 289 | 8.0 | 11.0 | 0.00 | 0.00 | 0.00 | ||
| 20260906091543 | 64 | 300 | 5.0 | 7.0 | 0.00 | 0.00 | 0.00 | ||
| 20260906091140 | 64 | 314 | 5.0 | 12.0 | 0.00 | 0.00 | 0.00 | ||
| 20260906090733 | 64 | 331 | 5.0 | 9.0 | 0.00 | 0.00 | 0.00 | ||
| 20260906090331 | 65 | 297 | 9.0 | 15.0 | 0.00 | 0.00 | 0.00 | ||
| 20260906085930 | 65 | 295 | 7.0 | 11.0 | 0.00 | 0.00 | 0.00 | ||
| 20260906085528 | 64 | 297 | 8.0 | 14.0 | 0.00 | 0.00 | 0.00 | ||
| 20260906085126 | 65 | 296 | 7.0 | 13.0 | 0.00 | 0.00 | 0.00 | ||
| 20260906084725 | 65 | 287 | 7.0 | 10.0 | 0.00 | 0.00 | 0.00 | ||
| 20260906084323 | 65 | 291 | 11.0 | 18.0 | 0.00 | 0.00 | 0.00 | ||
| 20260906083921 | 65 | 303 | 7.0 | 11.0 | 0.00 | 0.00 | 0.00 | ||
| 20260906083520 | 65 | 296 | 9.0 | 13.0 | 0.00 | 0.00 | 0.00 | ||
| 20260906083118 | 64 | 292 | 6.0 | 10.0 | 0.00 | 0.00 | 0.00 | ||
| 20260906082710 | 65 | 319 | 6.0 | 10.0 | 0.00 | 0.00 | 0.00 | ||
| 20260906082308 | 65 | 314 | 4.0 | 8.0 | 0.00 | 0.00 | 0.00 | ||
| 20260906081906 | 63 | 311 | 8.0 | 12.0 | 0.00 | 0.00 | 0.00 | ||
| 20260906081504 | 64 | 321 | 9.0 | 17.0 | 0.00 | 0.00 | 0.00 | ||
| 20260906081102 | 64 | 309 | 7.0 | 14.0 | 0.00 | 0.00 | 0.00 | ||
| 20260906080701 | 64 | 304 | 7.0 | 13.0 | 0.00 | 0.00 | 0.00 | ||
| 20260906080258 | 63 | 302 | 8.0 | 13.0 | 0.00 | 0.00 | 0.00 | ||
| 20260906075858 | 63 | 288 | 7.0 | 10.0 | 0.00 | 0.00 | 0.00 | ||
| 20260906075456 | 63 | 296 | 9.0 | 14.0 | 0.00 | 0.00 | 0.00 | ||
| 20260906075055 | 64 | 301 | 6.0 | 10.0 | 0.00 | 0.00 | 0.00 | ||
| 20260906074645 | 65 | 310 | 6.0 | 13.0 | 0.00 | 0.00 | 0.00 | ||
| 20260906074244 | 63 | 315 | 8.0 | 11.0 | 0.00 | 0.00 | 0.00 | ||
| 20260906073843 | 63 | 310 | 7.0 | 10.0 | 0.00 | 0.00 | 0.00 | ||
| 20260906073442 | 64 | 306 | 5.0 | 9.0 | 0.00 | 0.00 | 0.00 | ||
| 20260906073039 | 62 | 303 | 6.0 | 10.0 | 0.00 | 0.00 | 0.00 | ||
| 20260906072638 | 62 | 299 | 6.0 | 10.0 | 0.00 | 0.00 | 0.00 | ||
| 20260906072236 | 63 | 314 | 5.0 | 9.0 | 0.00 | 0.00 | 0.00 | ||
| 20260906071835 | 63 | 285 | 5.0 | 10.0 | 0.00 | 0.00 | 0.00 | ||
| 20260906071434 | 63 | 300 | 7.0 | 10.0 | 0.00 | 0.00 | 0.00 | ||
| 20260906071031 | 62 | 294 | 7.0 | 12.0 | 0.00 | 0.00 | 0.00 | ||
| 20260906070623 | 63 | 282 | 8.0 | 12.0 | 0.00 | 0.00 | 0.00 | ||
| 20260906070221 | 62 | 299 | 5.0 | 9.0 | 0.00 | 0.00 | 0.00 | ||
| 20260906065820 | 62 | 293 | 6.0 | 12.0 | 0.00 | 0.00 | 0.00 | ||
| 20260906065418 | 62 | 294 | 7.0 | 9.0 | 0.00 | 0.00 | 0.00 | ||
| 20260906065016 | 64 | 291 | 4.0 | 7.0 | 0.00 | 0.00 | 0.00 | ||
| 20260906064615 | 64 | 279 | 5.0 | 8.0 | 0.00 | 0.00 | 0.00 | ||
| 20260906064213 | 63 | 277 | 7.0 | 10.0 | 0.00 | 0.00 | 0.00 | ||
| 20260906063811 | 63 | 288 | 9.0 | 12.0 | 0.00 | 0.00 | 0.00 | ||
| 20260906063410 | 63 | 293 | 6.0 | 10.0 | 0.00 | 0.00 | 0.00 | ||
| 20260906063008 | 62 | 279 | 9.0 | 14.0 | 0.00 | 0.00 | 0.00 | ||
| 20260906062600 | 63 | 276 | 7.0 | 14.0 | 0.00 | 0.00 | 0.00 | ||
| 20260906062158 | 63 | 288 | 5.0 | 9.0 | 0.00 | 0.00 | 0.00 | ||
| 20260906061756 | 64 | 275 | 4.0 | 7.0 | 0.00 | 0.00 | 0.00 | ||
| 20260906061355 | 63 | 283 | 5.0 | 8.0 | 0.00 | 0.00 | 0.00 | ||
| 20260906060954 | 62 | 259 | 4.0 | 8.0 | 0.00 | 0.00 | 0.00 | ||
| 20260906060553 | 61 | 270 | 4.0 | 8.0 | 0.00 | 0.00 | 0.00 | ||
| 20260906055749 | 61 | 276 | 5.0 | 8.0 | 0.00 | 0.00 | 0.00 | ||
| 20260906055348 | 60 | 270 | 6.0 | 8.0 | 0.00 | 0.00 | 0.00 | ||
| 20260906054946 | 60 | 269 | 7.0 | 9.0 | 0.00 | 0.00 | 0.00 | ||
| 20260906054537 | 62 | 255 | 5.0 | 9.0 | 0.00 | 0.00 | 0.00 | ||
| 20260906054135 | 62 | 252 | 4.0 | 6.0 | 0.00 | 0.00 | 0.00 | ||
| 20260906053734 | 62 | 268 | 5.0 | 9.0 | 0.00 | 0.00 | 0.00 | ||
| 20260906053333 | 64 | 255 | 4.0 | 7.0 | 0.00 | 0.00 | 0.00 | ||
| 20260906052930 | 63 | 246 | 4.0 | 7.0 | 0.00 | 0.00 | 0.00 | ||
| 20260906052529 | 62 | 248 | 3.0 | 5.0 | 0.00 | 0.00 | 0.00 | ||
| 20260906052127 | 60 | 270 | 0.0 | 2.0 | 0.00 | 0.00 | 0.00 | ||
| 20260906051726 | 62 | 272 | 2.0 | 2.0 | 0.00 | 0.00 | 0.00 | ||
| 20260906051324 | 61 | 292 | 0.0 | 2.0 | 0.00 | 0.00 | 0.00 | ||
| 20260906050922 | 61 | 292 | 0.0 | 2.0 | 0.00 | 0.00 | 0.00 | ||
| 20260906050514 | 59 | 292 | 0.0 | 2.0 | 0.00 | 0.00 | 0.00 | ||
| 20260906050113 | 57 | 292 | 0.0 | 0.0 | 0.00 | 0.00 | 0.00 | ||
| 20260906045711 | 58 | 292 | 0.0 | 0.0 | 0.00 | 0.00 | 0.00 | ||
| 20260906045309 | 58 | 292 | 0.0 | 0.0 | 0.00 | 0.00 | 0.00 | ||
| 20260906044908 | 58 | 270 | 0.0 | 0.0 | 0.00 | 0.00 | 0.00 | ||
| 20260906044507 | 58 | 270 | 0.0 | 2.0 | 0.00 | 0.00 | 0.00 | ||
| 20260906044105 | 58 | 270 | 0.0 | 0.0 | 0.00 | 0.00 | 0.00 | ||
| 20260906043703 | 59 | 270 | 0.0 | 1.0 | 0.00 | 0.00 | 0.00 | ||
| 20260906043302 | 60 | 270 | 0.0 | 0.0 | 0.00 | 0.00 | 0.00 | ||
| 20260906042900 | 63 | 270 | 0.0 | 2.0 | 0.00 | 0.00 | 0.00 | ||
| 20260906042452 | 59 | 292 | 3.0 | 5.0 | 0.00 | 0.00 | 0.00 | ||
| 20260906042049 | 58 | 270 | 1.0 | 3.0 | 0.00 | 0.00 | 0.00 | ||
| 20260906041648 | 60 | 270 | 2.0 | 3.0 | 0.00 | 0.00 | 0.00 | ||
| 20260906041247 | 60 | 270 | 2.0 | 4.0 | 0.00 | 0.00 | 0.00 | ||
| 20260906040845 | 60 | 270 | 3.0 | 4.0 | 0.00 | 0.00 | 0.00 | ||
| 20260906040443 | 58 | 270 | 2.0 | 5.0 | 0.00 | 0.00 | 0.00 | ||
| 20260906040041 | 59 | 270 | 2.0 | 3.0 | 0.00 | 0.00 | 0.00 | ||
| 20260906035640 | 59 | 271 | 3.0 | 5.0 | 0.00 | 0.00 | 0.00 | ||
| 20260906035239 | 59 | 283 | 3.0 | 4.0 | 0.00 | 0.00 | 0.00 | ||
| 20260906034837 | 59 | 282 | 4.0 | 6.0 | 0.00 | 0.00 | 0.00 | ||
| 20260906034428 | 60 | 273 | 4.0 | 6.0 | 0.00 | 0.00 | 0.00 | ||
| 20260906034026 | 60 | 284 | 4.0 | 7.0 | 0.00 | 0.00 | 0.00 | ||
| 20260906033625 | 60 | 275 | 2.0 | 4.0 | 0.00 | 0.00 | 0.00 | ||
| 20260906033224 | 60 | 284 | 3.0 | 6.0 | 0.00 | 0.00 | 0.00 | ||
| 20260906032821 | 61 | 272 | 4.0 | 7.0 | 0.00 | 0.00 | 0.00 | ||
| 20260906032419 | 61 | 277 | 4.0 | 6.0 | 0.00 | 0.00 | 0.00 | ||
| 20260906032017 | 61 | 282 | 3.0 | 6.0 | 0.00 | 0.00 | 0.00 | ||
| 20260906031616 | 61 | 272 | 4.0 | 9.0 | 0.00 | 0.00 | 0.00 | ||
| 20260906031213 | 61 | 273 | 6.0 | 8.0 | 0.00 | 0.00 | 0.00 | ||
| 20260906030812 | 60 | 283 | 5.0 | 10.0 | 0.00 | 0.00 | 0.00 | ||
| 20260906030404 | 60 | 284 | 6.0 | 9.0 | 0.00 | 0.00 | 0.00 | ||
| 20260906030002 | 60 | 288 | 5.0 | 6.0 | 0.00 | 0.00 | 0.00 | ||
| 20260906025600 | 60 | 292 | 7.0 | 12.0 | 0.00 | 0.00 | 0.00 | ||
| 20260906025159 | 59 | 282 | 6.0 | 10.0 | 0.00 | 0.00 | 0.00 | ||
| 20260906024757 | 59 | 291 | 5.0 | 8.0 | 0.00 | 0.00 | 0.00 | ||
| 20260906024356 | 59 | 287 | 5.0 | 9.0 | 0.00 | 0.00 | 0.00 | ||
| 20260906023953 | 60 | 278 | 7.0 | 12.0 | 0.00 | 0.00 | 0.00 | ||
| 20260906023551 | 61 | 272 | 3.0 | 7.0 | 0.00 | 0.00 | 0.00 | ||
| 20260906023150 | 59 | 276 | 4.0 | 8.0 | 0.00 | 0.00 | 0.00 | ||
| 20260906022749 | 60 | 271 | 5.0 | 9.0 | 0.00 | 0.00 | 0.00 | ||
| 20260906022341 | 60 | 275 | 5.0 | 9.0 | 0.00 | 0.00 | 0.00 | ||
| 20260906021938 | 60 | 282 | 6.0 | 11.0 | 0.00 | 0.00 | 0.00 | ||
| 20260906021537 | 60 | 277 | 6.0 | 10.0 | 0.00 | 0.00 | 0.00 | ||
| 20260906021136 | 61 | 270 | 4.0 | 7.0 | 0.00 | 0.00 | 0.00 | ||
| 20260906020734 | 61 | 271 | 5.0 | 8.0 | 0.00 | 0.00 | 0.00 | ||
| 20260906020332 | 60 | 271 | 4.0 | 7.0 | 0.00 | 0.00 | 0.00 | ||
| 20260906015930 | 60 | 269 | 5.0 | 9.0 | 0.00 | 0.00 | 0.00 | ||
| 20260906015529 | 61 | 273 | 5.0 | 10.0 | 0.00 | 0.00 | 0.00 | ||
| 20260906015128 | 59 | 291 | 4.0 | 8.0 | 0.00 | 0.00 | 0.00 | ||
| 20260906014725 | 60 | 278 | 4.0 | 8.0 | 0.00 | 0.00 | 0.00 | ||
| 20260906014317 | 60 | 287 | 5.0 | 8.0 | 0.00 | 0.00 | 0.00 | ||
| 20260906013915 | 60 | 278 | 7.0 | 11.0 | 0.00 | 0.00 | 0.00 | ||
| 20260906013514 | 59 | 273 | 5.0 | 9.0 | 0.00 | 0.00 | 0.00 | ||
| 20260906013113 | 59 | 272 | 6.0 | 10.0 | 0.00 | 0.00 | 0.00 | ||
| 20260906012710 | 60 | 271 | 6.0 | 9.0 | 0.00 | 0.00 | 0.00 | ||
| 20260906012309 | 61 | 269 | 7.0 | 12.0 | 0.00 | 0.00 | 0.00 | ||
| 20260906011907 | 60 | 272 | 6.0 | 9.0 | 0.00 | 0.00 | 0.00 | ||
| 20260906011506 | 60 | 257 | 4.0 | 7.0 | 0.00 | 0.00 | 0.00 | ||
| 20260906011104 | 61 | 262 | 5.0 | 7.0 | 0.00 | 0.00 | 0.00 | ||
| 20260906010702 | 63 | 256 | 4.0 | 6.0 | 0.00 | 0.00 | 0.00 | ||
| 20260906010254 | 61 | 255 | 4.0 | 7.0 | 0.00 | 0.00 | 0.00 | ||
| 20260906005852 | 64 | 250 | 4.0 | 9.0 | 0.00 | 0.00 | 0.00 | ||
| 20260906005450 | 65 | 227 | 3.0 | 5.0 | 0.00 | 0.00 | 0.00 | ||
| 20260906005049 | 63 | 228 | 3.0 | 5.0 | 0.00 | 0.00 | 0.00 | ||
| 20260906004648 | 64 | 231 | 4.0 | 6.0 | 0.00 | 0.00 | 0.00 | ||
| 20260906004247 | 65 | 231 | 3.0 | 5.0 | 0.00 | 0.00 | 0.00 | ||
| 20260906003844 | 65 | 234 | 3.0 | 5.0 | 0.00 | 0.00 | 0.00 | ||
| 20260906003442 | 64 | 225 | 2.0 | 3.0 | 0.00 | 0.00 | 0.00 | ||
| 20260906002639 | 63 | 225 | 2.0 | 4.0 | 0.00 | 0.00 | 0.00 | ||
| 20260906002231 | 65 | 225 | 2.0 | 7.0 | 0.00 | 0.00 | 0.00 | ||
| 20260906001828 | 64 | 225 | 1.0 | 3.0 | 0.00 | 0.00 | 0.00 | ||
| 20260906001427 | 66 | 225 | 2.0 | 4.0 | 0.00 | 0.00 | 0.00 | ||
| 20260906001026 | 66 | 248 | 2.0 | 3.0 | 0.00 | 0.00 | 0.00 | ||
| 20260906000625 | 66 | 248 | 2.0 | 3.0 | 0.00 | 0.00 | 0.00 | ||
| 20260906000303 | 65 | 248 | 3.0 | 4.0 | 0.00 | 0.00 | 0.00 | ||
| 20260906000222 | 65 | 248 | 3.0 | 4.0 | 0.00 | 0.00 | 0.00 | ||
| 20260905235821 | 64 | 248 | 2.0 | 4.0 | 0.00 | 0.00 | 0.00 | ||
| 20260905235420 | 64 | 253 | 2.0 | 3.0 | 0.00 | 0.00 | 0.00 | ||
| 20260905235019 | 64 | 247 | 5.0 | 8.0 | 0.00 | 0.00 | 0.00 | ||
| 20260905234616 | 63 | 256 | 4.0 | 6.0 | 0.00 | 0.00 | 0.00 | ||
| 20260905234208 | 63 | 253 | 3.0 | 5.0 | 0.00 | 0.00 | 0.00 | ||
| 20260905233405 | 59 | 288 | 4.0 | 8.0 | 0.00 | 0.00 | 0.00 | ||
| 20260905233003 | 60 | 269 | 6.0 | 10.0 | 0.00 | 0.00 | 0.00 | ||
| 20260905232601 | 60 | 289 | 6.0 | 10.0 | 0.00 | 0.00 | 0.00 | ||
| 20260905232200 | 61 | 290 | 5.0 | 7.0 | 0.00 | 0.00 | 0.00 | ||
| 20260905231758 | 61 | 298 | 5.0 | 8.0 | 0.00 | 0.00 | 0.00 | ||
| 20260905231357 | 61 | 291 | 5.0 | 9.0 | 0.00 | 0.00 | 0.00 | ||
| 20260905230955 | 61 | 301 | 4.0 | 7.0 | 0.00 | 0.00 | 0.00 | ||
| 20260905230553 | 61 | 303 | 5.0 | 9.0 | 0.00 | 0.00 | 0.00 | ||
| 20260905230145 | 61 | 290 | 6.0 | 9.0 | 0.00 | 0.00 | 0.00 | ||
| 20260905225743 | 61 | 298 | 4.0 | 7.0 | 0.00 | 0.00 | 0.00 | ||
| 20260905225341 | 61 | 281 | 5.0 | 8.0 | 0.00 | 0.00 | 0.00 | ||
| 20260905224940 | 62 | 301 | 4.0 | 9.0 | 0.00 | 0.00 | 0.00 | ||
| 20260905224538 | 62 | 306 | 4.0 | 9.0 | 0.00 | 0.00 | 0.00 | ||
| 20260905224137 | 62 | 294 | 4.0 | 7.0 | 0.00 | 0.00 | 0.00 | ||
| 20260905223734 | 62 | 299 | 4.0 | 9.0 | 0.00 | 0.00 | 0.00 | ||
| 20260905223333 | 62 | 292 | 6.0 | 11.0 | 0.00 | 0.00 | 0.00 | ||
| 20260905223032 | 62 | 302 | 6.0 | 12.0 | 0.00 | 0.00 | 0.00 | ||
| 20260905222932 | 62 | 302 | 6.0 | 12.0 | 0.00 | 0.00 | 0.00 | ||
| 20260905222531 | 62 | 301 | 6.0 | 9.0 | 0.00 | 0.00 | 0.00 | ||
| 20260905222121 | 62 | 299 | 5.0 | 9.0 | 0.00 | 0.00 | 0.00 | ||
| 20260905221719 | 61 | 303 | 4.0 | 7.0 | 0.00 | 0.00 | 0.00 | ||
| 20260905221319 | 62 | 308 | 5.0 | 9.0 | 0.00 | 0.00 | 0.00 | ||
| 20260905220918 | 63 | 315 | 3.0 | 6.0 | 0.00 | 0.00 | 0.00 | ||
| 20260905220516 | 62 | 298 | 4.0 | 9.0 | 0.00 | 0.00 | 0.00 | ||
| 20260905220114 | 62 | 333 | 5.0 | 12.0 | 0.00 | 0.00 | 0.00 | ||
| 20260905215712 | 62 | 322 | 7.0 | 18.0 | 0.00 | 0.00 | 0.00 | ||
| 20260905215311 | 62 | 328 | 9.0 | 14.0 | 0.00 | 0.00 | 0.00 | ||
| 20260905214910 | 63 | 323 | 6.0 | 11.0 | 0.00 | 0.00 | 0.00 | ||
| 20260905214507 | 63 | 319 | 6.0 | 13.0 | 0.00 | 0.00 | 0.00 | ||
| 20260905214059 | 64 | 324 | 7.0 | 11.0 | 0.00 | 0.00 | 0.00 | ||
| 20260905213657 | 64 | 320 | 8.0 | 13.0 | 0.00 | 0.00 | 0.00 | ||
| 20260905213256 | 65 | 314 | 7.0 | 14.0 | 0.00 | 0.00 | 0.00 | ||
| 20260905212854 | 65 | 282 | 6.0 | 10.0 | 0.00 | 0.00 | 0.00 | ||
| 20260905212452 | 65 | 275 | 6.0 | 11.0 | 0.00 | 0.00 | 0.00 | ||
| 20260905212051 | 66 | 275 | 8.0 | 14.0 | 0.00 | 0.00 | 0.00 | ||
| 20260905211649 | 66 | 267 | 8.0 | 16.0 | 0.00 | 0.00 | 0.00 | ||
| 20260905211247 | 66 | 268 | 8.0 | 11.0 | 0.00 | 0.00 | 0.00 | ||
| 20260905210846 | 66 | 265 | 7.0 | 9.0 | 0.00 | 0.00 | 0.00 | ||
| 20260905210444 | 66 | 272 | 7.0 | 10.0 | 0.00 | 0.00 | 0.00 | ||
| 20260905210036 | 66 | 271 | 7.0 | 11.0 | 0.00 | 0.00 | 0.00 | ||
| 20260905205635 | 66 | 265 | 6.0 | 8.0 | 0.00 | 0.00 | 0.00 | ||
| 20260905205232 | 66 | 271 | 6.0 | 9.0 | 0.00 | 0.00 | 0.00 | ||
| 20260905204831 | 66 | 268 | 6.0 | 8.0 | 0.00 | 0.00 | 0.00 | ||
| 20260905204429 | 65 | 281 | 7.0 | 12.0 | 0.00 | 0.00 | 0.00 | ||
| 20260905204028 | 66 | 268 | 7.0 | 10.0 | 0.00 | 0.00 | 0.00 | ||
| 20260905203625 | 66 | 275 | 7.0 | 11.0 | 0.00 | 0.00 | 0.00 | ||
| 20260905203224 | 66 | 266 | 7.0 | 10.0 | 0.00 | 0.00 | 0.00 | ||
| 20260905202823 | 65 | 276 | 7.0 | 11.0 | 0.00 | 0.00 | 0.00 | ||
| 20260905202421 | 65 | 268 | 6.0 | 9.0 | 0.00 | 0.00 | 0.00 | ||
| 20260905202012 | 66 | 271 | 6.0 | 9.0 | 0.00 | 0.00 | 0.00 | ||
| 20260905201610 | 66 | 269 | 7.0 | 10.0 | 0.00 | 0.00 | 0.00 | ||
| 20260905201209 | 66 | 265 | 6.0 | 9.0 | 0.00 | 0.00 | 0.00 | ||
| 20260905200808 | 67 | 260 | 7.0 | 9.0 | 0.00 | 0.00 | 0.00 | ||
| 20260905200405 | 67 | 258 | 6.0 | 8.0 | 0.00 | 0.00 | 0.00 | ||
| 20260905200003 | 68 | 252 | 6.0 | 10.0 | 0.00 | 0.00 | 0.00 | ||
| 20260905195601 | 68 | 268 | 5.0 | 8.0 | 0.00 | 0.00 | 0.00 | ||
| 20260905195201 | 68 | 260 | 7.0 | 8.0 | 0.00 | 0.00 | 0.00 | ||
| 20260905194759 | 68 | 250 | 6.0 | 10.0 | 0.00 | 0.00 | 0.00 | ||
| 20260905194356 | 68 | 250 | 7.0 | 9.0 | 0.00 | 0.00 | 0.00 | ||
| 20260905193948 | 68 | 251 | 6.0 | 9.0 | 0.00 | 0.00 | 0.00 | ||
| 20260905193546 | 68 | 259 | 6.0 | 9.0 | 0.00 | 0.00 | 0.00 | ||
| 20260905193145 | 68 | 255 | 6.0 | 8.0 | 0.00 | 0.00 | 0.00 | ||
| 20260905192743 | 69 | 251 | 6.0 | 10.0 | 0.00 | 0.00 | 0.00 | ||
| 20260905192341 | 69 | 258 | 5.0 | 9.0 | 0.00 | 0.00 | 0.00 | ||
| 20260905191940 | 69 | 251 | 5.0 | 9.0 | 0.00 | 0.00 | 0.00 | ||
| 20260905191538 | 68 | 262 | 6.0 | 9.0 | 0.00 | 0.00 | 0.00 | ||
| 20260905191136 | 68 | 261 | 6.0 | 9.0 | 0.00 | 0.00 | 0.00 | ||
| 20260905190735 | 68 | 261 | 5.0 | 8.0 | 0.00 | 0.00 | 0.00 | ||
| 20260905190333 | 68 | 262 | 7.0 | 10.0 | 0.00 | 0.00 | 0.00 | ||
| 20260905185925 | 68 | 260 | 6.0 | 10.0 | 0.00 | 0.00 | 0.00 | ||
| 20260905185522 | 68 | 255 | 5.0 | 9.0 | 0.00 | 0.00 | 0.00 | ||
| 20260905185121 | 68 | 262 | 7.0 | 9.0 | 0.00 | 0.00 | 0.00 | ||
| 20260905184720 | 68 | 269 | 7.0 | 10.0 | 0.00 | 0.00 | 0.00 | ||
| 20260905184318 | 68 | 272 | 6.0 | 9.0 | 0.00 | 0.00 | 0.00 | ||
| 20260905183917 | 68 | 270 | 8.0 | 10.0 | 0.00 | 0.00 | 0.00 | ||
| 20260905183514 | 68 | 278 | 8.0 | 12.0 | 0.00 | 0.00 | 0.00 | ||
| 20260905183113 | 68 | 272 | 7.0 | 10.0 | 0.00 | 0.00 | 0.00 | ||
| 20260905182712 | 68 | 277 | 7.0 | 9.0 | 0.00 | 0.00 | 0.00 | ||
| 20260905182310 | 68 | 271 | 6.0 | 10.0 | 0.00 | 0.00 | 0.00 | ||
| 20260905181901 | 68 | 268 | 7.0 | 12.0 | 0.00 | 0.00 | 0.00 | ||
| 20260905181459 | 68 | 277 | 10.0 | 15.0 | 0.00 | 0.00 | 0.00 | ||
| 20260905181059 | 68 | 270 | 10.0 | 14.0 | 0.00 | 0.00 | 0.00 | ||
| 20260905180657 | 68 | 270 | 9.0 | 14.0 | 0.00 | 0.00 | 0.00 | ||
| 20260905180254 | 68 | 269 | 9.0 | 10.0 | 0.00 | 0.00 | 0.00 | ||
| 20260905175853 | 69 | 272 | 9.0 | 14.0 | 0.00 | 0.00 | 0.00 | ||
| 20260905175452 | 69 | 272 | 7.0 | 13.0 | 0.00 | 0.00 | 0.00 | ||
| 20260905175051 | 69 | 268 | 8.0 | 12.0 | 0.00 | 0.00 | 0.00 | ||
| 20260905174649 | 69 | 277 | 7.0 | 10.0 | 0.00 | 0.00 | 0.00 | ||
| 20260905174247 | 68 | 282 | 6.0 | 10.0 | 0.00 | 0.00 | 0.00 | ||
| 20260905173839 | 69 | 274 | 8.0 | 16.0 | 0.00 | 0.00 | 0.00 | ||
| 20260905173437 | 69 | 269 | 9.0 | 12.0 | 0.00 | 0.00 | 0.00 | ||
| 20260905173036 | 69 | 270 | 7.0 | 12.0 | 0.00 | 0.00 | 0.00 | ||
| 20260905172634 | 69 | 271 | 7.0 | 11.0 | 0.00 | 0.00 | 0.00 | ||
| 20260905172232 | 69 | 270 | 8.0 | 12.0 | 0.00 | 0.00 | 0.00 | ||
| 20260905171831 | 69 | 270 | 7.0 | 14.0 | 0.00 | 0.00 | 0.00 | ||
| 20260905171429 | 69 | 277 | 8.0 | 13.0 | 0.00 | 0.00 | 0.00 | ||
| 20260905171027 | 69 | 269 | 7.0 | 10.0 | 0.00 | 0.00 | 0.00 | ||
| 20260905170626 | 70 | 270 | 7.0 | 9.0 | 0.00 | 0.00 | 0.00 | ||
| 20260905170224 | 70 | 272 | 5.0 | 9.0 | 0.00 | 0.00 | 0.00 | ||
| 20260905165816 | 70 | 277 | 8.0 | 12.0 | 0.00 | 0.00 | 0.00 | ||
| 20260905165413 | 70 | 272 | 8.0 | 12.0 | 0.00 | 0.00 | 0.00 | ||
| 20260905165012 | 70 | 283 | 7.0 | 12.0 | 0.00 | 0.00 | 0.00 | ||
| 20260905164611 | 70 | 283 | 8.0 | 10.0 | 0.00 | 0.00 | 0.00 | ||
| 20260905164210 | 71 | 281 | 8.0 | 12.0 | 0.00 | 0.00 | 0.00 | ||
| 20260905163807 | 71 | 279 | 10.0 | 13.0 | 0.00 | 0.00 | 0.00 | ||
| 20260905163406 | 71 | 268 | 8.0 | 10.0 | 0.00 | 0.00 | 0.00 | ||
| 20260905163005 | 72 | 279 | 9.0 | 17.0 | 0.00 | 0.00 | 0.00 | ||
| 20260905162604 | 71 | 271 | 9.0 | 13.0 | 0.00 | 0.00 | 0.00 | ||
| 20260905162202 | 73 | 271 | 12.0 | 17.0 | 0.00 | 0.00 | 0.00 | ||
| 20260905161753 | 73 | 269 | 8.0 | 15.0 | 0.00 | 0.00 | 0.00 | ||
| 20260905161351 | 74 | 269 | 11.0 | 16.0 | 0.00 | 0.00 | 0.00 | ||
| 20260905160950 | 73 | 274 | 11.0 | 16.0 | 0.00 | 0.00 | 0.00 | ||
| 20260905160549 | 73 | 271 | 9.0 | 17.0 | 0.00 | 0.00 | 0.00 | ||
| 20260905160146 | 73 | 266 | 9.0 | 17.0 | 0.00 | 0.00 | 0.00 | ||
| 20260905155745 | 73 | 261 | 10.0 | 14.0 | 0.00 | 0.00 | 0.00 | ||
| 20260905155343 | 73 | 258 | 10.0 | 13.0 | 0.00 | 0.00 | 0.00 | ||
| 20260905154942 | 73 | 254 | 10.0 | 17.0 | 0.00 | 0.00 | 0.00 | ||
| 20260905154540 | 73 | 256 | 10.0 | 16.0 | 0.00 | 0.00 | 0.00 | ||
| 20260905154138 | 73 | 267 | 10.0 | 17.0 | 0.00 | 0.00 | 0.00 | ||
| 20260905153730 | 73 | 276 | 8.0 | 13.0 | 0.00 | 0.00 | 0.00 | ||
| 20260905153328 | 73 | 274 | 11.0 | 16.0 | 0.00 | 0.00 | 0.00 | ||
| 20260905152926 | 73 | 276 | 12.0 | 18.0 | 0.00 | 0.00 | 0.00 | ||
| 20260905152525 | 73 | 255 | 10.0 | 14.0 | 0.00 | 0.00 | 0.00 | ||
| 20260905152123 | 73 | 259 | 11.0 | 17.0 | 0.00 | 0.00 | 0.00 | ||
| 20260905151722 | 73 | 246 | 13.0 | 18.0 | 0.00 | 0.00 | 0.00 | ||
| 20260905151321 | 73 | 251 | 9.0 | 15.0 | 0.00 | 0.00 | 0.00 | ||
| 20260905150918 | 73 | 267 | 14.0 | 29.0 | 0.00 | 0.00 | 0.00 | ||
| 20260905150517 | 72 | 268 | 9.0 | 14.0 | 0.00 | 0.00 | 0.00 | ||
| 20260905150116 | 72 | 271 | 12.0 | 19.0 | 0.00 | 0.00 | 0.00 |